Location: East Guldeford
(50.9500°N, 0.7500°E)
Time: 09:44:32
(UTC+00:00)

SPOT 5 - Pass Details

Date: 12 May 2021
Orbit: 623 x 815 km, 98.2° (Epoch: 16 June)

Event Time Altitude Azimuth Distance (km) Brightness Sun altitude
Exits shadow 20:47:34 12° 137° (SE) 2,154 4.6 -9.6°
Maximum altitude 20:52:02 47° 67° (ENE) 1,046 3.6 -10.1°
Drops below altitude 10° 20:57:08 10° 355° (N) 2,406 6.4 -10.7°
Sets 20:59:35 0° 350° (N) 3,350 7.4 -10.9°
